Total_Precipitation_Accumulation
0.01 0.02 0.05 0.15 0.26 0.35 0.36 0.39 0.48 0.61 0.68 0.68 0.66 0.77 0.83 0.81 1.24 2.34 1.72 1.06 0.86 0.66 0.47 0.35 0.32 0.29 0.29 0.27 0.29 0.30 0.31 0.35 0.34 0.28 0.28 0.32 0.33 0.35 0.35 0.39 0.51 0.65 0.77 0.82 0.85 0.93 0.99 1.00 0.94
0.01 0.02 0.05 0.14 0.27 0.34 0.40 0.43 0.59 0.70 0.72 0.66 0.62 0.67 0.73 0.79 0.75 0.89 0.98 0.78 0.66 0.62 0.59 0.42 0.37 0.33 0.28 0.28 0.32 0.33 0.33 0.33 0.31 0.28 0.27 0.27 0.30 0.32 0.37 0.43 0.53 0.68 0.79 0.83 0.81 0.85 0.97 0.94 0.87
0.01 0.03 0.07 0.13 0.24 0.32 0.47 0.50 0.62 0.73 0.74 0.68 0.74 0.86 0.99 0.91 0.86 0.84 0.82 0.65 0.56 0.54 0.55 0.52 0.43 0.38 0.34 0.32 0.35 0.37 0.38 0.37 0.37 0.36 0.34 0.35 0.34 0.36 0.42 0.52 0.60 0.69 0.77 0.83 0.82 0.82 0.95 0.88 0.79
0.01 0.02 0.07 0.12 0.18 0.20 0.28 0.41 0.55 0.72 0.78 0.68 0.74 1.05 1.13 0.85 0.84 0.79 0.76 0.62 0.53 0.58 0.58 0.56 0.48 0.48 0.47 0.44 0.44 0.43 0.42 0.41 0.44 0.45 0.44 0.44 0.50 0.54 0.57 0.65 0.73 0.78 0.82 0.84 0.85 0.86 0.89 0.76 0.72
0.02 0.05 0.09 0.12 0.14 0.15 0.19 0.32 0.53 0.66 0.73 0.68 0.73 1.05 1.36 1.13 0.90 0.82 0.72 0.57 0.49 0.61 0.74 0.60 0.57 0.59 0.60 0.60 0.56 0.54 0.50 0.49 0.51 0.53 0.51 0.53 0.62 0.69 0.69 0.77 0.81 0.86 0.92 0.93 0.89 0.79 0.72 0.66 0.70
0.03 0.06 0.14 0.13 0.12 0.14 0.19 0.22 0.40 0.66 0.75 0.78 0.83 1.19 1.72 1.64 1.20 0.86 0.81 0.69 0.61 0.63 0.66 0.64 0.63 0.67 0.67 0.72 0.78 0.75 0.67 0.64 0.64 0.64 0.61 0.56 0.56 0.63 0.77 0.85 0.90 0.95 0.97 0.93 0.85 0.78 0.72 0.71 0.76
0.04 0.08 0.12 0.13 0.13 0.18 0.21 0.25 0.39 0.55 0.69 0.78 0.82 1.26 1.67 1.64 1.40 1.11 1.00 0.87 0.80 0.75 0.75 0.83 0.89 0.90 0.95 1.00 1.03 0.99 0.90 0.85 0.78 0.73 0.67 0.62 0.60 0.65 0.77 0.95 1.04 1.06 1.04 0.96 0.87 0.82 0.81 0.83 0.87
0.05 0.08 0.09 0.11 0.13 0.21 0.24 0.29 0.37 0.45 0.66 0.72 0.83 1.21 1.67 1.73 1.58 1.62 1.61 1.40 1.26 1.24 1.22 1.25 1.35 1.30 1.23 1.17 1.16 1.11 1.04 0.99 0.91 0.79 0.73 0.73 0.76 0.84 0.96 0.95 1.05 1.12 1.18 1.08 1.01 0.95 0.89 0.92 0.90
0.05 0.07 0.10 0.09 0.12 0.21 0.28 0.34 0.38 0.44 0.61 0.87 0.87 1.02 1.43 1.61 1.72 1.85 1.97 1.83 1.87 1.90 1.84 1.70 1.69 1.58 1.58 1.47 1.27 1.32 1.25 1.20 1.12 1.03 0.95 0.97 1.08 1.27 1.33 1.15 1.24 1.33 1.39 1.34 1.31 1.23 1.16 1.11 1.04
0.07 0.10 0.12 0.09 0.11 0.20 0.27 0.34 0.36 0.48 0.66 1.00 1.08 1.14 1.39 1.66 2.02 2.18 2.11 2.06 2.15 2.41 2.30 2.02 2.10 2.03 1.85 1.72 1.70 1.69 1.54 1.55 1.55 1.56 1.35 1.42 1.80 1.93 1.66 1.71 1.72 1.85 1.80 1.61 1.56 1.49 1.36 1.22 1.15
0.10 0.12 0.09 0.13 0.19 0.24 0.30 0.38 0.42 0.55 0.87 1.12 1.32 1.50 1.63 1.94 2.20 2.38 2.41 2.40 2.42 2.42 2.26 2.36 2.54 2.38 2.39 2.50 2.45 2.27 2.20 2.19 2.06 2.14 1.97 2.04 2.07 1.99 2.01 2.13 2.14 2.20 2.11 2.02 2.01 1.82 1.56 1.51 1.51
0.09 0.09 0.12 0.18 0.25 0.29 0.37 0.48 0.59 0.64 0.89 1.19 1.36 1.72 2.07 2.33 2.46 2.59 2.71 2.63 2.82 2.70 2.46 2.54 2.56 2.57 2.71 2.81 2.90 2.95 2.80 2.78 2.65 2.59 2.41 2.51 2.59 2.61 2.57 2.72 2.77 2.84 2.77 2.70 2.54 2.31 2.21 1.97 1.83
0.07 0.07 0.13 0.24 0.31 0.34 0.46 0.61 0.65 0.75 0.89 1.10 1.37 1.66 1.79 2.07 2.46 3.08 3.14 3.29 3.46 3.29 3.05 2.92 3.03 2.91 2.87 3.11 3.25 3.08 3.22 3.18 3.29 3.26 2.94 2.97 2.98 3.01 3.24 3.26 3.42 3.33 3.35 3.19 2.96 2.60 2.46 2.33 2.09
0.07 0.12 0.18 0.25 0.33 0.42 0.51 0.63 0.66 0.84 1.05 1.14 1.27 1.48 1.78 1.98 2.19 2.73 3.21 3.41 3.63 3.74 3.58 3.33 3.25 3.28 3.17 3.33 3.58 3.54 3.39 3.49 3.54 3.71 3.53 3.43 3.42 3.50 3.59 3.64 3.74 3.54 3.38 3.35 3.18 2.84 2.65 2.48 2.34
0.08 0.16 0.25 0.28 0.30 0.37 0.44 0.66 0.67 0.77 1.05 1.28 1.32 1.43 1.76 2.17 2.44 2.83 3.22 3.60 3.90 3.92 3.69 3.67 3.51 3.77 3.89 4.09 4.04 4.05 4.11 4.13 4.05 4.02 4.10 4.01 4.03 4.07 3.95 4.08 4.10 3.87 3.64 3.59 3.52 3.36 3.01 2.78 2.72
0.15 0.25 0.37 0.37 0.33 0.30 0.45 0.81 0.84 0.85 1.12 1.27 1.44 1.62 1.83 2.16 2.50 2.89 3.19 3.47 3.80 3.88 3.88 4.03 3.82 3.94 4.24 4.28 4.26 4.43 4.69 4.79 4.63 4.43 4.44 4.37 4.49 4.58 4.61 4.44 4.21 4.05 3.88 3.84 3.96 3.69 3.34 3.22 3.22
0.20 0.30 0.39 0.41 0.36 0.36 0.48 0.78 0.84 0.88 1.12 1.24 1.31 1.50 1.72 1.96 2.29 2.70 3.15 3.46 3.70 3.83 3.82 4.04 4.25 4.13 4.41 4.57 4.62 4.82 5.01 5.16 5.05 4.86 4.72 4.76 4.78 4.71 4.83 4.76 4.57 4.39 4.28 4.20 3.89 3.82 3.65 3.59 3.49
0.22 0.23 0.32 0.36 0.34 0.36 0.48 0.68 0.85 0.88 1.14 1.21 1.38 1.39 1.58 1.89 2.21 2.58 3.11 3.51 3.67 3.89 3.95 4.07 4.45 4.49 4.82 4.99 4.85 5.00 5.11 5.14 5.10 5.08 5.03 5.19 5.27 5.11 5.11 4.93 4.80 4.73 4.65 4.51 4.28 4.19 4.03 3.76 3.58
0.20 0.18 0.26 0.33 0.35 0.40 0.54 0.73 0.94 1.01 1.19 1.29 1.50 1.56 1.85 2.04 2.23 2.57 3.03 3.47 4.00 4.15 4.25 4.22 4.38 4.69 4.87 5.04 5.08 5.40 5.41 5.27 5.43 5.66 5.60 5.75 5.81 5.53 5.44 5.30 5.16 4.93 4.73 4.60 4.47 4.27 4.05 3.71 3.59
0.22 0.19 0.30 0.42 0.47 0.53 0.63 0.81 1.02 1.15 1.17 1.46 1.75 1.80 2.29 2.45 2.40 2.59 3.12 3.52 3.95 4.21 4.34 4.55 4.71 4.79 4.95 5.44 5.86 6.21 6.54 6.51 6.44 6.58 6.57 6.38 6.26 6.11 5.88 5.85 5.57 5.20 4.94 4.64 4.41 4.20 3.88 3.54 3.52
0.21 0.26 0.36 0.51 0.51 0.61 0.77 1.21 1.32 1.30 1.35 1.59 1.91 2.06 2.41 2.57 2.71 2.64 2.81 3.19 3.62 3.98 4.20 4.44 4.77 5.17 5.73 6.41 6.84 7.08 7.42 7.55 7.28 7.00 6.81 6.56 6.37 6.17 5.76 5.56 5.47 5.18 4.68 4.38 4.22 4.01 3.81 3.57 3.44
0.18 0.20 0.29 0.37 0.48 0.72 0.81 1.47 1.64 1.58 1.68 1.79 1.96 2.05 2.31 2.27 2.48 2.62 2.69 2.95 3.27 3.57 3.93 4.34 4.79 5.43 6.34 7.06 7.48 7.84 7.99 7.99 7.78 7.46 7.02 6.58 6.19 5.77 5.37 5.12 4.86 4.60 4.26 4.04 3.77 3.68 3.67 3.61 3.42
0.11 0.13 0.20 0.25 0.37 0.61 0.72 1.30 1.70 1.68 1.92 2.00 2.16 2.19 2.23 2.27 2.22 2.32 2.44 2.65 3.02 3.37 3.73 4.18 4.65 5.39 6.13 6.79 7.39 7.86 8.03 7.96 7.68 7.19 6.63 6.10 5.63 5.14 4.66 4.35 4.08 3.84 3.58 3.38 3.17 3.13 3.22 3.25 3.17
0.10 0.15 0.25 0.33 0.54 0.88 0.72 1.11 1.81 2.01 2.16 2.26 2.22 2.29 2.49 2.44 2.27 2.29 2.30 2.43 2.66 3.01 3.38 3.83 4.27 4.86 5.50 5.98 6.58 6.98 7.16 7.04 6.60 6.01 5.40 5.03 4.75 4.40 4.00 3.63 3.37 3.09 2.88 2.73 2.65 2.58 2.58 2.70 2.74
0.12 0.28 0.65 0.84 0.95 1.01 0.73 1.18 2.03 2.21 2.13 2.24 2.39 2.51 2.58 2.55 2.41 2.31 2.30 2.33 2.48 2.73 3.07 3.37 3.61 4.10 4.43 4.78 5.28 5.65 5.69 5.52 5.19 4.88 4.63 4.22 3.78 3.37 3.12 2.84 2.64 2.41 2.32 2.31 2.36 2.35 2.34 2.38 2.41
0.14 0.26 0.71 1.09 1.04 1.01 1.08 1.78 2.41 2.31 2.12 2.08 2.20 2.29 2.33 2.27 2.24 2.21 2.20 2.29 2.41 2.43 2.66 2.84 2.91 3.16 3.41 3.61 3.86 3.97 3.99 3.97 3.94 3.84 3.51 3.12 2.70 2.34 2.24 2.19 2.00 1.92 1.94 1.92 2.01 2.04 2.09 2.16 2.15
0.16 0.24 0.33 0.60 0.71 1.10 1.63 2.23 2.69 2.43 2.36 2.23 2.03 1.88 2.06 2.14 2.11 2.12 2.17 2.31 2.37 2.30 2.29 2.36 2.45 2.50 2.60 2.69 2.82 2.88 2.91 3.01 2.99 2.92 2.75 2.48 2.25 1.99 1.88 1.85 1.82 1.77 1.80 1.78 1.81 1.80 1.74 1.84 1.91
0.15 0.21 0.35 0.63 1.15 1.49 1.81 2.42 3.00 2.94 2.85 2.81 2.45 2.08 2.12 2.15 2.20 2.19 2.11 2.12 2.20 2.10 2.08 2.16 2.24 2.20 2.20 2.16 2.16 2.07 2.21 2.29 2.32 2.25 2.08 2.04 2.02 1.90 1.79 1.70 1.67 1.61 1.55 1.54 1.66 1.68 1.64 1.64 1.63
0.20 0.26 0.38 0.65 0.91 1.45 2.13 2.78 2.74 3.02 3.13 2.98 2.62 2.20 2.16 2.13 2.19 2.23 2.27 2.11 2.03 2.05 2.06 1.94 1.93 1.90 1.85 1.83 1.90 1.84 1.81 1.82 1.79 1.67 1.60 1.63 1.66 1.66 1.60 1.42 1.38 1.36 1.31 1.33 1.44 1.50 1.53 1.53 1.50
0.25 0.29 0.40 0.85 0.99 1.12 1.88 2.82 2.71 3.03 3.18 2.99 2.85 2.54 2.31 2.35 2.30 2.21 2.24 2.20 2.07 1.92 1.86 1.79 1.76 1.71 1.67 1.67 1.72 1.63 1.58 1.56 1.56 1.52 1.43 1.41 1.45 1.45 1.42 1.34 1.23 1.17 1.20 1.31 1.33 1.29 1.31 1.36 1.36